| time (UTC) | temp F | wind direction | speed knots | gust knots | rain 1hr in | rain 24hr in | rain mn in | humidity % | barometer mb |
| 20260503184813 | 77 | 6 | 0.9 | 2.6 | 0.00 | 0.00 | 0.00 | 41 | 1012.2 |
| 20260503184310 | 78 | 26 | 4.3 | 7.8 | 0.00 | 0.00 | 0.00 | 38 | 1012.2 |
| 20260503183805 | 76 | 193 | 1.7 | 5.2 | 0.00 | 0.00 | 0.00 | 41 | 1012.4 |
| 20260503183303 | 75 | 10 | 2.6 | 6.1 | 0.00 | 0.00 | 0.00 | 42 | 1012.3 |
| 20260503182800 | 76 | 15 | 5.2 | 7.0 | 0.00 | 0.00 | 0.00 | 41 | 1012.5 |
| 20260503182300 | 75 | 353 | 1.7 | 3.5 | 0.00 | 0.00 | 0.00 | 44 | 1012.6 |
| 20260503181756 | 75 | 15 | 4.3 | 7.0 | 0.00 | 0.00 | 0.00 | 43 | 1012.3 |
| 20260503181253 | 75 | 60 | 1.7 | 2.6 | 0.00 | 0.00 | 0.00 | 45 | 1012.4 |
| 20260503180749 | 74 | 133 | 0.0 | 1.7 | 0.00 | 0.00 | 0.00 | 46 | 1012.5 |
| 20260503180248 | 75 | 52 | 0.9 | 3.5 | 0.00 | 0.00 | 0.00 | 47 | 1012.5 |
| 20260503175743 | 73 | 337 | 0.9 | 3.5 | 0.00 | 0.00 | 0.00 | 50 | 1012.7 |
| 20260503175242 | 73 | 21 | 3.5 | 3.5 | 0.00 | 0.00 | 0.00 | 48 | 1012.6 |
| 20260503174737 | 73 | 353 | 3.5 | 6.1 | 0.00 | 0.00 | 0.00 | 49 | 1012.7 |
| 20260503174236 | 72 | 25 | 2.6 | 5.2 | 0.00 | 0.00 | 0.00 | 49 | 1012.7 |
| 20260503173736 | 72 | 12 | 2.6 | 2.6 | 0.00 | 0.00 | 0.00 | 50 | 1012.7 |
| 20260503173232 | 72 | 13 | 4.3 | 5.2 | 0.00 | 0.00 | 0.00 | 50 | 1013.0 |
| 20260503172729 | 70 | 18 | 0.9 | 3.5 | 0.00 | 0.00 | 0.00 | 52 | 1012.7 |
| 20260503172226 | 70 | 37 | 5.2 | 7.0 | 0.00 | 0.00 | 0.00 | 53 | 1012.8 |
| 20260503171723 | 70 | 50 | 2.6 | 5.2 | 0.00 | 0.00 | 0.00 | 53 | 1012.9 |
| 20260503171220 | 70 | 2 | 0.9 | 6.1 | 0.00 | 0.00 | 0.00 | 54 | 1013.1 |
| 20260503170717 | 69 | 28 | 1.7 | 5.2 | 0.00 | 0.00 | 0.00 | 55 | 1013.0 |
| 20260503170214 | 69 | 5 | 3.5 | 6.1 | 0.00 | 0.00 | 0.00 | 57 | 1012.8 |
| 20260503160135 | 65 | 34 | 0.0 | 1.7 | 0.00 | 0.00 | 0.00 | 71 | 1013.1 |
| 20260503150605 | 60 | 43 | 3.5 | 5.2 | 0.00 | 0.00 | 0.00 | 78 | 1013.5 |
| 20260503130955 | 55 | 15 | 0.9 | 0.9 | 0.00 | 0.00 | 0.00 | 93 | 1013.2 |
| 20260503130453 | 55 | 15 | 0.9 | 1.7 | 0.00 | 0.00 | 0.00 | 92 | 1012.9 |
| 20260503110349 | 55 | 111 | 0.9 | 1.7 | 0.00 | 0.00 | 0.00 | 95 | 1013.2 |
| 20260503090240 | 55 | 114 | 0.9 | 0.9 | 0.00 | 0.00 | 0.00 | 94 | 1013.8 |
| 20260503081208 | 56 | 114 | 0.9 | 0.9 | 0.00 | 0.00 | 0.00 | 92 | 1013.9 |
| 20260503080704 | 56 | 114 | 0.0 | 0.0 | 0.00 | 0.00 | 0.00 | 91 | 1013.8 |
| 20260503080201 | 56 | 114 | 0.0 | 0.0 | 0.00 | 0.00 | 0.00 | 91 | 1013.9 |
| 20260503072637 | 57 | 114 | 0.0 | 0.0 | 0.00 | 0.00 | 0.00 | 90 | 1013.5 |
| 20260503072134 | 57 | 114 | 0.0 | 0.0 | 0.00 | 0.00 | 0.00 | 89 | 1013.9 |
| 20260503071631 | 57 | 114 | 0.0 | 0.0 | 0.00 | 0.00 | 0.00 | 89 | 1013.8 |
| 20260503071128 | 57 | 114 | 0.0 | 0.0 | 0.00 | 0.00 | 0.00 | 88 | 1013.9 |
| 20260503070625 | 58 | 114 | 0.0 | 0.0 | 0.00 | 0.00 | 0.00 | 87 | 1013.9 |
| 20260503070123 | 58 | 114 | 0.0 | 0.0 | 0.00 | 0.00 | 0.00 | 87 | 1013.9 |
| 20260503055043 | 60 | 114 | 0.0 | 0.0 | 0.00 | 0.01 | 0.01 | 82 | 1013.8 |
| 20260503054539 | 60 | 110 | 0.9 | 0.9 | 0.00 | 0.01 | 0.01 | 82 | 1014.0 |
| 20260503054037 | 60 | 84 | 0.0 | 0.0 | 0.00 | 0.01 | 0.01 | 81 | 1013.8 |
| 20260503053535 | 60 | 84 | 0.9 | 0.9 | 0.00 | 0.01 | 0.01 | 81 | 1013.9 |
| 20260503053032 | 60 | 84 | 0.0 | 0.0 | 0.00 | 0.01 | 0.01 | 81 | 1013.9 |
| 20260503052529 | 60 | 84 | 0.9 | 0.9 | 0.00 | 0.01 | 0.01 | 80 | 1013.8 |
| 20260503052025 | 60 | 84 | 0.9 | 1.7 | 0.00 | 0.01 | 0.01 | 80 | 1013.8 |
| 20260503051521 | 61 | 84 | 0.0 | 0.0 | 0.00 | 0.01 | 0.01 | 79 | 1013.6 |
| 20260503051019 | 61 | 84 | 0.0 | 0.9 | 0.00 | 0.01 | 0.01 | 79 | 1013.8 |
| 20260503050514 | 61 | 84 | 0.0 | 0.9 | 0.00 | 0.01 | 0.01 | 78 | 1013.8 |
| 20260503050012 | 61 | 19 | 0.9 | 0.9 | 0.00 | 0.01 | 0.01 | 79 | 1013.7 |
| 20260503045509 | 61 | 331 | 1.7 | 1.7 | 0.00 | 0.01 | 0.01 | 80 | 1013.6 |
| 20260503045006 | 61 | 25 | 0.9 | 0.9 | 0.00 | 0.01 | 0.01 | 79 | 1013.8 |
| 20260503044502 | 61 | 28 | 1.7 | 2.6 | 0.00 | 0.01 | 0.01 | 79 | 1014.1 |
| 20260503044000 | 61 | 26 | 0.9 | 2.6 | 0.00 | 0.01 | 0.01 | 79 | 1014.0 |
| 20260503043456 | 61 | 31 | 0.0 | 0.0 | 0.00 | 0.01 | 0.01 | 79 | 1013.8 |
| 20260503042953 | 61 | 31 | 0.0 | 0.9 | 0.00 | 0.01 | 0.01 | 78 | 1013.6 |
| 20260503042449 | 62 | 30 | 0.0 | 1.7 | 0.00 | 0.01 | 0.01 | 78 | 1013.5 |
| 20260503041946 | 61 | 31 | 0.9 | 0.9 | 0.00 | 0.01 | 0.01 | 78 | 1013.2 |
| 20260503041443 | 62 | 28 | 0.0 | 0.0 | 0.00 | 0.01 | 0.01 | 78 | 1013.4 |
| 20260503040941 | 62 | 28 | 0.0 | 0.9 | 0.00 | 0.01 | 0.01 | 77 | 1013.4 |
| 20260503040437 | 62 | 27 | 1.7 | 1.7 | 0.00 | 0.01 | 0.01 | 76 | 1013.5 |
| 20260503035935 | 62 | 224 | 0.0 | 0.9 | 0.00 | 0.01 | 0.01 | 76 | 1013.9 |
| 20260503035431 | 62 | 224 | 0.9 | 0.9 | 0.00 | 0.01 | 0.01 | 76 | 1013.5 |
| 20260503034929 | 62 | 223 | 0.9 | 0.9 | 0.00 | 0.01 | 0.01 | 76 | 1013.7 |
| 20260503034427 | 62 | 222 | 1.7 | 1.7 | 0.00 | 0.01 | 0.01 | 76 | 1013.6 |
| 20260503033923 | 62 | 221 | 0.9 | 0.9 | 0.00 | 0.01 | 0.01 | 76 | 1013.6 |
| 20260503033421 | 63 | 220 | 0.0 | 0.9 | 0.00 | 0.01 | 0.01 | 75 | 1013.8 |
| 20260503032919 | 63 | 220 | 0.0 | 0.0 | 0.00 | 0.01 | 0.01 | 75 | 1013.5 |
| 20260503032417 | 63 | 220 | 0.0 | 0.0 | 0.00 | 0.01 | 0.01 | 74 | 1013.3 |
| 20260503031914 | 63 | 220 | 0.0 | 0.9 | 0.00 | 0.01 | 0.01 | 74 | 1013.6 |
| 20260503031412 | 63 | 220 | 0.9 | 0.9 | 0.00 | 0.01 | 0.01 | 74 | 1013.5 |
| 20260503030908 | 64 | 220 | 0.9 | 0.9 | 0.00 | 0.01 | 0.01 | 73 | 1013.1 |
| 20260503030405 | 64 | 220 | 0.0 | 0.9 | 0.00 | 0.01 | 0.01 | 72 | 1013.4 |
| 20260503025901 | 64 | 273 | 0.9 | 0.9 | 0.00 | 0.01 | 0.01 | 72 | 1013.2 |
| 20260503025359 | 64 | 219 | 0.9 | 0.9 | 0.00 | 0.01 | 0.01 | 72 | 1013.3 |
| 20260503024856 | 64 | 219 | 1.7 | 1.7 | 0.00 | 0.01 | 0.01 | 72 | 1013.3 |
| 20260503024353 | 65 | 219 | 1.7 | 1.7 | 0.00 | 0.01 | 0.01 | 70 | 1013.4 |
| 20260503023849 | 65 | 219 | 0.9 | 1.7 | 0.00 | 0.01 | 0.01 | 68 | 1013.5 |
| 20260503023346 | 65 | 219 | 0.0 | 0.0 | 0.00 | 0.01 | 0.01 | 69 | 1013.7 |
| 20260503022843 | 66 | 219 | 0.0 | 0.9 | 0.00 | 0.01 | 0.01 | 68 | 1013.6 |
| 20260503022338 | 66 | 219 | 0.0 | 0.9 | 0.00 | 0.01 | 0.01 | 68 | 1013.6 |
| 20260503021834 | 66 | 212 | 0.0 | 1.7 | 0.00 | 0.01 | 0.01 | 67 | 1013.9 |
| 20260503021330 | 66 | 211 | 1.7 | 1.7 | 0.00 | 0.01 | 0.01 | 67 | 1013.8 |
| 20260503020828 | 66 | 191 | 0.9 | 0.9 | 0.00 | 0.01 | 0.01 | 67 | 1013.8 |
| 20260503020326 | 66 | 186 | 0.9 | 2.6 | 0.00 | 0.01 | 0.01 | 66 | 1013.8 |
| 20260503015822 | 68 | 174 | 2.6 | 2.6 | 0.00 | 0.01 | 0.01 | 64 | 1013.8 |
| 20260503015319 | 69 | 209 | 0.0 | 0.0 | 0.00 | 0.01 | 0.01 | 63 | 1013.5 |
| 20260503014815 | 69 | 209 | 0.9 | 0.9 | 0.00 | 0.01 | 0.01 | 61 | 1013.1 |
| 20260503014313 | 70 | 209 | 0.0 | 0.9 | 0.00 | 0.01 | 0.01 | 60 | 1013.0 |
| 20260503013810 | 70 | 209 | 0.0 | 0.0 | 0.00 | 0.01 | 0.01 | 60 | 1012.8 |
| 20260503013307 | 70 | 209 | 0.0 | 0.0 | 0.00 | 0.01 | 0.01 | 59 | 1012.7 |
| 20260503012804 | 70 | 209 | 0.0 | 0.9 | 0.00 | 0.01 | 0.01 | 59 | 1012.8 |
| 20260503012305 | 70 | 209 | 0.0 | 0.9 | 0.00 | 0.01 | 0.01 | 58 | 1012.9 |
| 20260503011758 | 70 | 209 | 0.0 | 0.9 | 0.00 | 0.01 | 0.01 | 59 | 1012.9 |
| 20260503011255 | 70 | 209 | 0.0 | 0.0 | 0.00 | 0.01 | 0.01 | 59 | 1012.9 |
| 20260503010751 | 71 | 209 | 0.0 | 0.0 | 0.00 | 0.01 | 0.01 | 58 | 1012.8 |
| 20260503010249 | 71 | 209 | 0.9 | 0.9 | 0.00 | 0.01 | 0.01 | 57 | 1012.6 |
| 20260503005746 | 71 | 209 | 0.9 | 0.9 | 0.00 | 0.01 | 0.01 | 56 | 1012.7 |
| 20260503005243 | 71 | 209 | 0.9 | 0.9 | 0.00 | 0.01 | 0.01 | 58 | 1012.8 |
| 20260503004739 | 71 | 203 | 0.0 | 0.9 | 0.00 | 0.01 | 0.01 | 56 | 1012.7 |
| 20260503004237 | 71 | 199 | 0.0 | 0.9 | 0.00 | 0.01 | 0.01 | 56 | 1012.9 |
| 20260503003734 | 71 | 200 | 0.9 | 1.7 | 0.00 | 0.01 | 0.01 | 57 | 1012.8 |
| 20260503003231 | 71 | 205 | 0.9 | 0.9 | 0.00 | 0.01 | 0.01 | 56 | 1012.7 |
| 20260503002728 | 72 | 205 | 0.9 | 0.9 | 0.00 | 0.01 | 0.01 | 55 | 1012.7 |
| 20260503002225 | 72 | 206 | 0.0 | 0.9 | 0.00 | 0.01 | 0.01 | 56 | 1012.6 |
| 20260503001721 | 71 | 206 | 0.0 | 0.0 | 0.00 | 0.01 | 0.01 | 55 | 1012.6 |
| 20260503001218 | 71 | 218 | 2.6 | 2.6 | 0.00 | 0.01 | 0.01 | 55 | 1012.7 |
| 20260503000716 | 71 | 218 | 0.0 | 0.0 | 0.00 | 0.01 | 0.01 | 55 | 1012.6 |
| 20260503000213 | 71 | 215 | 0.0 | 1.7 | 0.00 | 0.01 | 0.01 | 55 | 1012.7 |
| 20260502235709 | 71 | 216 | 0.0 | 1.7 | 0.00 | 0.01 | 0.01 | 55 | 1012.7 |
| 20260502235208 | 71 | 205 | 0.9 | 0.9 | 0.00 | 0.01 | 0.01 | 55 | 1012.8 |
| 20260502234703 | 71 | 204 | 0.9 | 0.9 | 0.00 | 0.01 | 0.01 | 56 | 1012.9 |
| 20260502234201 | 71 | 205 | 0.0 | 0.9 | 0.00 | 0.01 | 0.01 | 54 | 1012.9 |
| 20260502233656 | 71 | 205 | 0.0 | 0.9 | 0.00 | 0.01 | 0.01 | 55 | 1013.1 |
| 20260502233153 | 70 | 204 | 0.0 | 0.9 | 0.00 | 0.01 | 0.01 | 55 | 1013.1 |
| 20260502232649 | 70 | 205 | 0.9 | 0.9 | 0.00 | 0.01 | 0.01 | 54 | 1013.1 |
| 20260502232147 | 70 | 205 | 0.0 | 0.9 | 0.00 | 0.01 | 0.01 | 54 | 1013.2 |
| 20260502231643 | 70 | 205 | 0.9 | 0.9 | 0.00 | 0.01 | 0.01 | 54 | 1013.1 |
| 20260502231141 | 70 | 212 | 0.9 | 1.7 | 0.00 | 0.01 | 0.01 | 54 | 1013.3 |
| 20260502230640 | 70 | 223 | 0.9 | 0.9 | 0.00 | 0.01 | 0.01 | 55 | 1013.2 |
| 20260502230138 | 70 | 224 | 1.7 | 1.7 | 0.00 | 0.01 | 0.01 | 55 | 1013.5 |
| 20260502225633 | 70 | 224 | 0.0 | 0.9 | 0.00 | 0.01 | 0.01 | 56 | 1013.4 |
| 20260502225131 | 71 | 225 | 0.0 | 2.6 | 0.00 | 0.01 | 0.01 | 53 | 1013.7 |
| 20260502224626 | 71 | 222 | 0.0 | 0.9 | 0.00 | 0.01 | 0.01 | 53 | 1013.7 |
| 20260502224123 | 70 | 223 | 0.9 | 1.7 | 0.00 | 0.01 | 0.01 | 55 | 1013.7 |
| 20260502223621 | 70 | 206 | 0.0 | 0.9 | 0.00 | 0.01 | 0.01 | 54 | 1014.0 |
| 20260502223119 | 69 | 208 | 1.7 | 2.6 | 0.00 | 0.01 | 0.01 | 53 | 1013.7 |
| 20260502222616 | 71 | 191 | 0.0 | 0.9 | 0.00 | 0.01 | 0.01 | 53 | 1013.9 |
| 20260502222112 | 70 | 214 | 0.9 | 1.7 | 0.00 | 0.01 | 0.01 | 53 | 1014.0 |
| 20260502221608 | 71 | 224 | 0.9 | 2.6 | 0.00 | 0.01 | 0.01 | 52 | 1014.1 |
| 20260502221106 | 70 | 208 | 0.9 | 1.7 | 0.00 | 0.01 | 0.01 | 54 | 1014.2 |
| 20260502220602 | 69 | 177 | 0.9 | 0.9 | 0.00 | 0.01 | 0.01 | 54 | 1014.4 |
| 20260502220058 | 71 | 204 | 0.9 | 1.7 | 0.00 | 0.01 | 0.01 | 52 | 1014.2 |
| 20260502215555 | 71 | 203 | 0.9 | 1.7 | 0.00 | 0.01 | 0.01 | 51 | 1014.5 |
| 20260502215052 | 71 | 189 | 0.9 | 0.9 | 0.00 | 0.01 | 0.01 | 52 | 1014.4 |
| 20260502214549 | 70 | 205 | 0.0 | 0.9 | 0.00 | 0.01 | 0.01 | 54 | 1014.6 |
| 20260502214047 | 69 | 204 | 0.0 | 0.9 | 0.00 | 0.01 | 0.01 | 56 | 1014.6 |
| 20260502213543 | 68 | 203 | 0.9 | 0.9 | 0.00 | 0.01 | 0.01 | 56 | 1014.7 |
| 20260502213041 | 68 | 202 | 0.9 | 1.7 | 0.00 | 0.01 | 0.01 | 57 | 1014.7 |
| 20260502212540 | 67 | 198 | 1.7 | 1.7 | 0.00 | 0.01 | 0.01 | 59 | 1014.7 |
| 20260502212037 | 68 | 215 | 0.9 | 2.6 | 0.00 | 0.01 | 0.01 | 57 | 1014.8 |
| 20260502211532 | 68 | 196 | 1.7 | 1.7 | 0.00 | 0.01 | 0.01 | 57 | 1015.1 |
| 20260502211030 | 68 | 185 | 0.0 | 1.7 | 0.00 | 0.01 | 0.01 | 57 | 1015.1 |
| 20260502210527 | 68 | 196 | 0.9 | 1.7 | 0.00 | 0.01 | 0.01 | 56 | 1015.4 |
| 20260502210024 | 66 | 194 | 1.7 | 2.6 | 0.00 | 0.01 | 0.01 | 60 | 1015.2 |
| 20260502205520 | 64 | 200 | 0.9 | 1.7 | 0.00 | 0.01 | 0.01 | 61 | 1015.3 |
| 20260502205018 | 65 | 240 | 1.7 | 2.6 | 0.00 | 0.01 | 0.01 | 60 | 1015.6 |
| 20260502204514 | 64 | 211 | 0.9 | 0.9 | 0.00 | 0.01 | 0.01 | 61 | 1015.6 |
| 20260502204013 | 65 | 225 | 1.7 | 2.6 | 0.00 | 0.01 | 0.01 | 60 | 1015.6 |
| 20260502203509 | 65 | 220 | 0.9 | 1.7 | 0.00 | 0.01 | 0.01 | 61 | 1015.8 |
| 20260502203006 | 66 | 202 | 0.9 | 1.7 | 0.00 | 0.01 | 0.01 | 59 | 1015.7 |
| 20260502202502 | 65 | 203 | 0.9 | 1.7 | 0.00 | 0.01 | 0.01 | 61 | 1016.0 |
| 20260502202000 | 66 | 200 | 1.7 | 2.6 | 0.00 | 0.01 | 0.01 | 59 | 1016.0 |
| 20260502201456 | 67 | 215 | 0.9 | 1.7 | 0.00 | 0.01 | 0.01 | 58 | 1015.9 |
| 20260502200953 | 67 | 201 | 0.9 | 0.9 | 0.00 | 0.01 | 0.01 | 58 | 1016.0 |
| 20260502200449 | 65 | 205 | 0.0 | 1.7 | 0.00 | 0.01 | 0.01 | 61 | 1016.0 |
| 20260502195947 | 64 | 213 | 1.7 | 2.6 | 0.00 | 0.01 | 0.01 | 62 | 1016.2 |
| 20260502195444 | 63 | 177 | 0.0 | 0.9 | 0.00 | 0.01 | 0.01 | 65 | 1016.1 |
| 20260502194939 | 62 | 195 | 0.9 | 1.7 | 0.00 | 0.01 | 0.01 | 66 | 1016.1 |
| 20260502194437 | 63 | 200 | 1.7 | 2.6 | 0.00 | 0.01 | 0.01 | 64 | 1016.1 |
| 20260502193932 | 61 | 199 | 0.0 | 1.7 | 0.00 | 0.01 | 0.01 | 67 | 1016.3 |
| 20260502193430 | 61 | 190 | 0.9 | 1.7 | 0.00 | 0.01 | 0.01 | 68 | 1016.4 |
| 20260502192925 | 60 | 179 | 0.9 | 1.7 | 0.00 | 0.01 | 0.01 | 69 | 1016.1 |
| 20260502192423 | 60 | 227 | 1.7 | 2.6 | 0.00 | 0.01 | 0.01 | 68 | 1016.3 |
| 20260502191919 | 59 | 219 | 0.0 | 0.0 | 0.00 | 0.01 | 0.01 | 70 | 1016.6 |
| 20260502191418 | 59 | 204 | 0.0 | 0.9 | 0.00 | 0.01 | 0.01 | 71 | 1016.6 |
| 20260502190915 | 59 | 204 | 0.0 | 0.9 | 0.00 | 0.01 | 0.01 | 70 | 1017.1 |
| 20260502190412 | 58 | 200 | 0.9 | 1.7 | 0.00 | 0.01 | 0.01 | 73 | 1017.2 |
| 20260502185908 | 58 | 221 | 0.0 | 2.6 | 0.00 | 0.01 | 0.01 | 73 | 1017.0 |
| 20260502185403 | 57 | 168 | 0.0 | 1.7 | 0.00 | 0.01 | 0.01 | 74 | 1017.2 |